Home   Weather   Delta   Past weeks

Flag for Canada Past Weather in Delta, British Columbia, Canada — Yesterday and Last 2 Weeks

Now
23 °F

Clear.


Feels Like: 14 °F
Forecast: 16 / 27 °F
Wind: 8 mph from East

Location: Vancouver International Airport

Current Time: Dec 7, 2016 at 10:17:13 pm

Latest Report: Dec 7, 2016 at 9:00 pm


Visibility: 20 mi

Pressure: 30.41 "Hg

Humidity: 68%

Dew Point: 14 °F

Location of DeltaLocation

Past Weather in Delta — Graph

°F

Delta Temperature Yesterday

Maximum temperature yesterday: 37 °F (at 1:00 pm)
Minimum temperature yesterday: 28 °F (at 7:00 am)
Average temperature yesterday: 31 °F

High & Low Weather Summary for the Past Weeks

 TemperatureHumidityPressure
High50 °F (Nov 24, 1:00 pm)100% (Nov 22, 10:00 pm)30.52 "Hg (Nov 22, 10:00 pm)
Low21 °F (Dec 7, 6:00 am)44% (Dec 7, 2:00 pm)29.41 "Hg (Nov 27, 8:00 pm)
Average41 °F86%29.97 "Hg
* Reported Nov 22 9:00 pm — Dec 7 9:00 pm, Delta, Weather by CustomWeather, © 2016

Note: Actual official high and low records may vary slightly from our data, if they occured in-between our weather recording intervals... More about our weather records

Advertising

Delta Weather History for the Previous 24 Hours

Scroll right to see more
 ConditionsComfort  
Time TempWeatherWind HumidityBarometerVisibility
9:00 pm
Wed, Dec 7
23 °FClear.8 mph68%30.41 "Hg20 mi
8:00 pm23 °FClear.8 mph68%30.42 "Hg20 mi
7:00 pm27 °FClear.7 mph54%30.43 "Hg20 mi
6:00 pm28 °FClear.3 mph55%30.44 "Hg30 mi
5:00 pm30 °FPassing clouds.3 mph51%30.45 "Hg30 mi
4:00 pm30 °FPassing clouds.No wind59%30.47 "Hg30 mi
3:00 pm32 °FPassing clouds.No wind47%30.47 "Hg30 mi
2:00 pm32 °FPassing clouds.No wind44%30.48 "Hg30 mi
1:00 pm32 °FPassing clouds.3 mph47%30.49 "Hg30 mi
12:00 pm30 °FPassing clouds.5 mph51%30.50 "Hg30 mi
11:00 am28 °FPassing clouds.7 mph55%30.51 "Hg30 mi
10:00 am27 °FPassing clouds.8 mph59%30.52 "Hg30 mi
9:00 am25 °FPassing clouds.7 mph69%30.51 "Hg30 mi
8:00 am23 °FPassing clouds.5 mph68%30.50 "Hg30 mi
7:00 am23 °FClear.8 mph68%30.50 "Hg30 mi
6:00 am21 °FPassing clouds.6 mph74%30.50 "Hg20 mi
5:00 am25 °FPassing clouds.2 mph63%30.49 "Hg20 mi
4:00 am27 °FPassing clouds.No wind59%30.48 "Hg20 mi
3:00 am27 °FPassing clouds.6 mph59%30.48 "Hg20 mi
2:00 am27 °FPassing clouds.6 mph64%30.47 "Hg20 mi
1:00 am28 °FPassing clouds.6 mph59%30.45 "Hg20 mi
12:00 am28 °FPassing clouds.10 mph64%30.44 "Hg20 mi
11:00 pm
Tue, Dec 6
28 °FPassing clouds.10 mph64%30.42 "Hg20 mi
10:00 pm28 °FPassing clouds.8 mph69%30.40 "Hg20 mi
Weather by CustomWeather, © 2016

See weather overviewHow to use our weather pages